Wind_Speed
36 44 47 41 46 49 48 42 34 30 28 26 23 25 25 24 23 23 24 26 27 26
35 38 49 51 50 50 49 47 37 29 30 26 26 27 26 27 27 26 27 28 28 29
37 35 38 46 52 49 52 48 41 40 33 31 29 29 28 27 29 29 31 30 32 30
38 36 36 36 40 49 53 48 47 40 43 34 31 31 30 31 32 31 32 32 33 34
37 38 39 39 36 37 46 47 44 41 35 34 34 34 34 35 35 35 35 35 33 34
35 39 41 44 44 40 38 43 41 41 41 38 35 35 36 36 36 37 37 36 36 35
36 37 38 39 41 42 41 41 42 44 40 39 37 36 36 34 34 35 37 38 42 39
37 33 32 33 34 36 40 39 38 39 37 35 34 36 35 33 34 35 36 39 35 35
32 30 33 33 34 34 35 36 35 36 35 34 34 35 34 33 31 32 35 36 36 34
30 30 31 30 29 30 32 32 34 33 32 30 28 32 33 30 31 32 32 31 32 31
31 29 29 29 29 29 29 30 31 32 33 33 32 32 34 32 30 26 28 29 27 24
32 30 30 31 30 26 32 37 35 33 33 33 32 30 28 25 23 22 22 21 18 15
26 26 26 28 38 42 38 34 33 30 28 26 21 21 23 21 18 16 16 14 12 10
24 27 34 39 36 35 32 27 25 24 20 17 15 15 13 11 11 10 11 11 10 9
Wind_Direction
203 201 195 196 202 201 201 203 202 212 208 214 218 220 226 226 230 234 241 248 249 249
203 206 204 205 203 205 207 208 204 218 223 217 219 225 231 232 237 240 247 253 257 256
201 205 210 212 210 213 214 212 213 223 227 226 225 227 230 236 241 241 249 255 260 258
201 205 208 208 215 210 219 213 219 225 222 229 231 231 233 240 244 246 253 255 256 256
205 208 207 208 214 217 220 217 218 216 222 229 231 234 236 241 245 248 251 254 257 259
207 207 209 209 212 213 215 214 216 222 226 231 233 235 240 244 247 252 252 255 256 260
207 209 213 214 214 214 217 217 219 222 228 232 236 240 244 245 249 253 256 253 259 268
207 206 209 212 214 216 219 220 222 226 231 233 236 240 241 243 246 249 253 265 267 268
208 207 208 209 209 211 216 216 219 221 226 231 235 242 247 247 248 250 251 260 265 270
206 209 211 210 208 209 213 213 214 216 220 226 230 238 249 251 257 253 257 262 266 268
209 209 210 210 210 208 213 215 213 214 216 225 232 241 250 251 253 254 258 259 260 257
209 207 207 208 207 206 208 211 212 217 218 233 241 241 247 249 248 254 252 249 245 241
208 206 206 205 203 204 208 208 218 227 224 222 225 235 247 247 238 236 229 217 207 195
202 199 203 207 208 210 212 213 208 203 202 208 216 219 221 211 210 199 183 175 175 179
Height
1458 1463 1469 1474 1479 1485 1491 1497 1503 1507 1511 1514 1517 1521 1523 1525 1528 1530 1531 1532 1533 1534
1454 1459 1464 1469 1476 1481 1486 1492 1499 1504 1505 1509 1512 1515 1518 1520 1522 1524 1525 1525 1526 1527
1450 1455 1460 1466 1471 1476 1481 1488 1494 1498 1500 1504 1506 1509 1512 1514 1515 1517 1517 1518 1519 1520
1444 1450 1455 1459 1463 1469 1474 1481 1486 1490 1494 1498 1500 1503 1506 1507 1509 1510 1510 1512 1512 1513
1438 1443 1448 1452 1457 1462 1467 1473 1478 1484 1487 1490 1493 1496 1498 1500 1501 1502 1503 1504 1505 1505
1432 1436 1439 1445 1451 1456 1461 1467 1472 1477 1480 1483 1486 1489 1490 1492 1494 1494 1495 1496 1496 1496
1426 1430 1435 1441 1446 1450 1455 1460 1465 1469 1473 1476 1480 1483 1485 1487 1487 1487 1487 1487 1486 1487
1419 1425 1431 1435 1439 1444 1448 1453 1458 1462 1466 1470 1472 1474 1476 1478 1479 1479 1478 1478 1476 1476
1415 1420 1423 1427 1431 1436 1440 1445 1450 1454 1458 1461 1464 1465 1467 1469 1470 1469 1468 1468 1467 1466
1409 1413 1418 1422 1425 1429 1432 1437 1440 1446 1450 1454 1457 1456 1458 1459 1459 1459 1459 1459 1458 1457
1402 1406 1411 1416 1419 1423 1426 1429 1434 1438 1441 1443 1445 1447 1449 1450 1450 1450 1450 1450 1450 1450
1396 1400 1405 1409 1414 1419 1419 1419 1424 1429 1432 1435 1436 1438 1439 1440 1441 1442 1443 1444 1444 1445
1393 1397 1401 1405 1402 1403 1407 1412 1418 1422 1425 1427 1428 1429 1431 1433 1434 1435 1437 1439 1441 1444
1388 1391 1391 1392 1396 1400 1403 1407 1412 1415 1417 1420 1422 1424 1426 1428 1430 1433 1435 1437 1440 1443